Location: Brno
(49.2000°N, 16.6330°E)
Time: 05:25:40
(UTC+01:00)

Daily predictions for brighter satellites

Satellite Brightness Start Highest point End
(mag) Time Altitude Azimuth Time Altitude Azimuth Time Altitude Azimuth
ATLAS 2AS CENTAUR R/B 4.1 01:56:14 39° NNE 01:56:14 39° NNE 02:01:04 10° NE
Cosmos 1943 Rocket 4.4 03:07:45 16° N 03:07:45 16° N 03:09:27 10° N
Okean O Rocket 4.2 03:05:37 10° NE 03:08:22 16° E 03:09:02 15° E
ADEOS II 3.4 03:09:41 10° NNE 03:12:47 35° NNE 03:12:47 35° NNE
Resurs 1-4 Rocket 4.4 03:16:02 10° N 03:17:05 15° N 03:17:05 15° N
Cosmos 2369 Rocket 4.5 03:24:40 14° NNW 03:24:40 14° NNW 03:26:26 10° N
Cosmos 2278 4.4 03:24:50 49° E 03:24:50 49° E 03:29:52 10° NE
Cosmos 1656 4.1 03:36:24 57° E 03:36:24 57° E 03:41:13 10° NE
Cosmos 1980 Rocket 3.9 03:40:10 18° SSE 03:43:17 29° ESE 03:48:06 10° NE
ATLAS 2AS CENTAUR R/B 4.0 03:43:39 31° NW 03:45:23 34° NNW 03:52:35 10° NE
Cosmos 2298 Rocket 4.3 03:47:43 66° E 03:47:43 66° E 03:52:41 10° NNE
Cosmos 2369 3.6 03:52:35 84° ENE 03:52:35 84° ENE 03:58:13 10° NNE
SJ 16-02 3.3 03:55:19 19° SE 03:57:26 27° E 04:01:10 10° NE
Cosmos 2150 Rocket 3.9 04:03:36 82° ESE 04:03:37 82° ESE 04:08:47 10° NNE
Cosmos 158 Rocket 3.8 04:09:36 74° NNW 04:10:05 88° ENE 04:15:15 10° SSE
NOSS 3-4 (A) 4.2 04:10:33 38° NW 04:11:14 39° NNW 04:17:26 10° NE
COSMO-SKYMED 1 4.4 04:07:26 10° SE 04:11:14 30° ENE 04:15:02 10° N
NOSS 3-4 (C) 4.2 04:10:39 38° NW 04:11:19 39° NNW 04:17:32 10° NE
Cosmos 1697 Rocket 2.7 04:11:23 53° S 04:12:43 77° ESE 04:18:22 10° NNE
Cosmos 1934 Rocket 4.4 04:07:17 10° S 04:13:33 65° E 04:19:51 10° NNE
COSMOS 2455 2.9 04:10:09 20° NNW 04:14:26 77° NE 04:20:28 10° SE
Cosmos 2098 Rocket 4.2 04:15:27 51° WNW 04:15:27 51° WNW 04:22:19 10° N
Cosmos 2123 Rocket 4.0 04:15:31 10° N 04:21:47 82° E 04:28:03 10° S
Aureole 1 Rocket 4.1 04:15:31 10° NNW 04:23:01 56° WSW 04:28:52 10° S
Cosmos 1048 Rocket 4.0 04:18:50 10° NNW 04:24:03 80° ENE 04:29:09 10° SSE
Cosmos 405 4.0 04:27:21 10° N 04:30:50 47° ENE 04:34:17 10° SSE
CZ-4B R/B 4.1 04:27:44 10° N 04:29:41 28° N 04:29:41 28° N
Cosmos 1707 Rocket 3.6 04:30:27 27° S 04:32:49 78° E 04:37:19 10° NNE
Cosmos 1898 Rocket 4.2 04:33:18 38° NW 04:33:18 38° NW 04:37:59 10° N
Cosmos 1937 Rocket 3.7 04:33:00 48° WNW 04:33:09 48° WNW 04:38:18 10° NNE
Cosmos 1933 4.1 04:30:03 10° S 04:34:01 53° E 04:37:59 10° NNE
RESURS DK-1 4.5 04:37:36 16° NNW 04:37:36 16° NNW 04:39:16 10° N
Meteor 1-31 Rocket 2.7 04:33:36 10° NNE 04:37:28 85° ESE 04:38:21 52° S
Cosmos 1821 Rocket 3.9 04:33:54 25° SSW 04:37:41 68° WNW 04:43:57 10° N
CZ-4B R/B 3.1 04:35:40 10° NNE 04:41:08 89° E 04:46:41 10° SSW
Cosmos 990 Rocket 4.4 04:43:14 41° WNW 04:43:42 42° WNW 04:48:42 10° NNE
Cosmos 1125 Rocket 3.8 04:39:53 10° S 04:45:01 66° ESE 04:50:12 10° NNE
Okean O Rocket 1.5 04:40:45 10° N 04:45:10 65° WNW 04:46:30 42° SW
Cosmos 1535 Rocket 4.4 04:44:35 12° SSW 04:50:10 64° WNW 04:56:15 10° N
CZ-4B R/B 4.0 04:49:16 10° N 04:53:44 70° WNW 04:56:28 22° SSW
ADEOS II 3.3 04:50:09 10° N 04:53:45 23° NW 04:53:45 23° NW
Cosmos 2263 Rocket 2.6 04:50:16 10° NNW 04:55:55 66° ENE 05:01:34 10° SE
USA 116 4.2 04:52:21 10° S 04:57:02 69° WSW 05:02:14 10° NNW
CZ-4B DEB 4.2 04:53:36 10° N 04:59:00 60° WNW 05:03:48 13° SW
SKYMED 2 3.6 04:54:44 10° SSE 04:59:04 85° ENE 05:03:27 10° NNW
Meteor PRIRODA 3.8 04:57:59 10° N 05:01:36 47° WNW 05:02:07 44° W
Cosmos 2360 4.1 04:59:29 15° SSW 05:04:20 80° WNW 05:10:06 10° NNE
Meteor 2-17 Rocket 4.3 05:01:04 10° SSW 05:07:08 79° W 05:13:16 10° N
IRS-1C Rocket 4.0 05:02:43 10° NNE 05:07:59 71° WNW 05:13:13 10° SSW
Cosmos 2278 4.4 05:06:46 27° W 05:08:43 34° NW 05:13:55 10° NNE
Cosmos 1437 Rocket 4.4 05:06:26 10° N 05:10:16 37° ENE 05:14:01 10° SE
CZ-2C R/B 3.3 05:05:54 10° NNE 05:10:53 53° E 05:15:56 10° S
Meteor 2-10 Rocket 3.8 05:08:52 23° SW 05:11:33 41° WNW 05:16:18 10° N
CZ-3 R/B 4.2 05:02:51 17° WSW 05:11:35 24° SSW 05:18:09 10° SSE
Cosmos 2242 Rocket 3.7 05:08:11 10° S 05:12:46 83° E 05:17:22 10° N
Geosat 4.1 05:09:26 10° SE 05:14:27 78° ENE 05:19:31 10° NNW
Cosmos 2322 Rocket 3.1 05:11:01 10° S 05:16:30 51° ESE 05:22:01 10° NE
EXPRESS MD2 4.4 05:15:41 27° WSW 05:17:25 41° SSW 05:24:04 10° SE
Meteor 1-25 Rocket 4.3 05:14:04 10° N 05:19:49 85° E 05:25:36 10° SSE
Cosmos 494 Rocket 3.9 05:15:32 10° NNW 05:20:42 88° WSW 05:25:50 10° SSE
ERBS 4.1 05:20:14 15° NW 05:22:20 25° NNE 05:25:15 10° ENE
Cosmos 1605 Rocket 3.9 05:17:15 10° SSW 05:23:16 60° WNW 05:29:19 10° N
Cosmos 2360 Rocket 4.4 05:20:31 10° SSE 05:25:13 28° ESE 05:29:56 10° NE
Cosmos 1269 Rocket 4.3 05:20:44 10° NW 05:25:43 43° WSW 05:30:40 10° S
Cosmos 1980 Rocket 2.3 05:21:59 13° SW 05:27:00 54° NW 05:32:34 10° NNE
Cosmos 1908 Rocket 3.8 05:23:57 10° N 05:28:22 73° E 05:32:43 10° SSE
Cosmos 2100 Rocket 4.3 05:23:14 10° S 05:29:20 70° E 05:35:28 10° NNE
Cosmos 1633 2.5 05:28:05 10° N 05:31:45 85° W 05:35:24 10° S
Cosmos 405 Rocket 2.7 05:28:00 10° SSW 05:31:55 66° WNW 05:35:47 10° N
MTI 3.8 05:29:25 10° S 05:32:32 53° W 05:35:41 10° NNW
Cosmos 1733 Rocket 3.3 05:28:28 10° NNW 05:32:40 45° W 05:36:51 10° SSW
SJ 16-02 1.9 05:32:23 13° SW 05:35:54 37° WNW 05:40:03 10° N
ATLAS 5 CENTAUR R/B 2.0 05:32:29 10° SSW 05:37:03 72° SE 05:42:10 10° NE
ATLAS 2AS CENTAUR R/B 4.4 05:31:52 10° NW 05:38:49 30° N 05:45:35 10° ENE
Cosmos 1862 Rocket 3.5 05:34:45 10° SSW 05:39:04 64° WNW 05:43:28 10° N
NOAA 6 4.0 05:35:57 10° N 05:41:06 64° WNW 05:46:10 10° SSW
Okean-O 2.6 05:38:41 10° N 05:43:07 70° WNW 05:47:31 10° SSW
MSX 3.9 05:37:20 10° NNE 05:43:09 86° ESE 05:48:56 10° SSW
PAYLOAD A 3.9 05:40:00 10° N 05:44:42 60° WNW 05:49:30 10° SSW
COSMO-SKYMED 1 3.2 05:43:26 10° SSW 05:47:20 32° W 05:51:17 10° NNW
BREEZE M DEB (TANK) 1.0 05:48:49 18° W 05:50:14 81° N 05:52:55 10° E
EO 1 Del DPAF 3.5 05:50:02 10° S 05:53:43 47° W 05:57:27 10° NNW
Okean 1-7 4.0 05:49:42 10° S 05:53:54 53° E 05:58:10 10° NNE
Cosmos 1459 Rocket 4.0 05:48:26 10° S 05:54:43 84° W 06:01:08 10° N
Cosmos 2173 Rocket 4.0 05:50:30 10° S 05:56:41 82° W 06:02:51 10° N
Cosmos 1697 Rocket 3.8 05:53:10 11° W 05:57:20 24° NW 06:01:54 10° NNE
Cosmos 2016 Rocket 4.3 05:51:05 10° S 05:57:23 76° E 06:03:46 10° NNE
Landsat 4 4.4 05:55:07 10° SSW 05:58:28 32° W 06:01:51 10° NNW
USA 229 DEB 3.9 05:52:13 10° NW 05:59:21 72° SW 06:06:40 10° SSE
Cosmos 2061 Rocket 4.0 05:53:11 10° S 05:59:22 89° W 06:05:37 10° N
USA 229 3.9 05:52:20 10° NW 05:59:27 72° SW 06:06:47 10° SSE
COSMOS 2455 3.9 05:55:11 10° WNW 05:59:45 23° WSW 06:04:18 10° SSW
IDEFIX/ARIANE 42P 2.9 05:55:26 10° N 06:00:26 46° WNW 06:05:22 10° SW
Cosmos 1802 Rocket 4.1 05:54:32 10° S 06:00:56 88° W 06:07:18 10° N
NOSS 3-1 (A) 4.4 05:53:50 10° NW 06:01:07 67° NE 06:09:23 10° SE
SL-16 R/B 2.2 05:56:59 10° SW 06:02:40 75° WNW 06:08:22 10° NNE
Cosmos 2251 Rocket 3.7 06:07:06 10° NNW 06:12:16 55° WSW 06:17:26 10° S
Cosmos 1441 Rocket 4.3 06:09:45 10° SW 06:13:09 26° WNW 06:16:33 10° N
Thor Agena Rocket 3.6 06:09:35 10° SSE 06:14:51 82° WSW 06:20:06 10° NNW
